STPSAT-6

Last updated on Tue Sep 16 2025 00:02:50 GMT+0000 (Coordinated Universal Time)

1 49817U 21118A 25258.56238919 -.00000062 00000+0 00000+0 0 9994 2 49817 0.0177 200.4582 0001823 75.0079 170.0008 1.00272373 13813
UTC large
Height (km)
Speed (km/s)
/
Latitude / Longitude
Inclination (degrees)
Orbital Period (minutes)
Azimuth
Elevation
Range (km)
Doppler Factor

Next 0 passes for location: London (51.5072 / 0.1276)

Sorry there are no passes over London.